User: anonymous   Login
Location: Unspecified
(0.0000°N, 0.0000°E)
Time: 03:43:38
(UTC+00:00)
Language:

USA 176 - Orbit

View from above orbital plane
View from above orbital plane
View from above satellite
View from above satellite

Ground track
Ground track

The orbit data is extracted from the following two-line orbital elements,

1 28158U 04004A   24107.78327231 -.00000224  00000-0  00000-0 0  9998
2 28158  10.9815  31.4013 0000696 347.1715 195.9750  1.00278062 24997
Epoch (UTC): 16 April 2024 18:47:54
Eccentricity: 0.0000696
inclination: 10.9815°
perigee height: 35781 km
apogee height: 35787 km
right ascension of ascending node: 31.4013°
argument of perigee: 347.1715°
revolutions per day: 1.00278062
mean anomaly at epoch: 195.9750°
orbit number at epoch: 2499

The dashed part of the orbit path shows where the satellite is in the earth's shadow,  

DLR